Shelton, WA

4:54 PM PDT on April 30, 2017 (GMT -0700)
Sanderson

Weather History for KSHN - October, 2013

Change the Weather History Date:

Friday, October 4, 2013

  Actual Average Record
Temperature  
Mean Temperature 50 °F -  
Max Temperature 63 °F 65 °F 78 °F (1952)
Min Temperature 36 °F 44 °F 30 °F (2012)
Degree Days  
Heating Degree Days 16    
Moisture  
Dew Point 43 °F    
Average Humidity 86    
Maximum Humidity 100    
Minimum Humidity 48    
Precipitation  
Precipitation 0.00 in - - ()
Sea Level Pressure  
Sea Level Pressure 30.42 in    
Wind  
Wind Speed 1 mph (ESE)    
Max Wind Speed 5 mph    
Max Gust Speed -    
Visibility 10 miles    
Events      
Averages and records for this station are not official NWS values.
T = Trace of Precipitation, MM = Missing Value Source: NWS Daily Summary

Daily Weather History Graph

Daily Weather History Graph

Search for Another Location

Airport or City:

Trip Planner

Search our weather history database for the weather conditions in past years. The results will help you decide how hot, cold, wet, or windy it might be!

Date:

Astronomy

Oct. 04, 2013 Rise Set
Actual Time 7:16 AM PDT 6:45 PM PDT
Civil Twilight 6:45 AM PDT 7:15 PM PDT
Nautical Twilight 6:10 AM PDT 7:51 PM PDT
Astronomical Twilight 5:34 AM PDT 8:27 PM PDT
Moon 6:58 AM PDT (10/4) 6:28 PM PDT (10/4)
Length of Visible Light 12h 30m
Length of Day
11h 29m
Waning Crescent, 0% of the Moon is Illuminated
Oct 4
Waning Crescent
Oct 4
New
Oct 11
First Quarter
Oct 18
Full
Oct 26
Last Quarter

Hourly Weather History & Observations

Time (PDT) Temp. Windchill Dew Point Humidity Pressure Visibility Wind Dir Wind Speed Gust Speed Precip Events Conditions
12:25 AM 41.0 °F - 39.2 °F 93% 30.43 in - Calm Calm - N/A   Overcast
12:53 AM 39.9 °F - 39.9 °F 100% 30.44 in - Calm Calm - N/A   Overcast
1:53 AM 37.9 °F - 37.0 °F 97% 30.45 in - Calm Calm - N/A   Overcast
2:53 AM 39.0 °F - 37.9 °F 96% 30.46 in - Calm Calm - N/A   Overcast
3:53 AM 36.0 °F - 35.1 °F 97% 30.45 in - Calm Calm - N/A   Overcast
4:53 AM 37.0 °F - 36.0 °F 96% 30.45 in - Calm Calm - N/A   Overcast
5:53 AM 37.9 °F - 37.0 °F 97% 30.46 in - Calm Calm - N/A   Overcast
6:53 AM 37.9 °F - 37.0 °F 97% 30.46 in - Calm Calm - N/A   Overcast
7:53 AM 41.0 °F - 39.9 °F 96% 30.46 in - Calm Calm - N/A   Overcast
8:53 AM 42.1 °F - 41.0 °F 96% 30.48 in - Calm Calm - N/A   Overcast
9:53 AM 44.1 °F 42.5 °F 43.0 °F 96% 30.47 in - East 3.5 mph - N/A   Overcast
10:53 AM 46.0 °F - 45.0 °F 96% 30.47 in - Calm Calm - N/A   Overcast
11:44 AM 50.0 °F - 46.4 °F 87% 30.45 in - ESE 3.5 mph - N/A   Mostly Cloudy
11:53 AM 48.9 °F - 46.0 °F 90% 30.46 in - Variable 3.5 mph - N/A   Mostly Cloudy
12:10 PM 51.8 °F - 46.4 °F 82% 30.44 in 10.0 mi ESE 3.5 mph - N/A   Scattered Clouds
12:53 PM 55.0 °F - 46.0 °F 72% 30.45 in 10.0 mi ESE 4.6 mph - N/A   Clear
1:53 PM 59.0 °F - 46.0 °F 62% 30.42 in 10.0 mi ESE 4.6 mph - N/A   Clear
2:53 PM 62.1 °F - 46.0 °F 56% 30.40 in 10.0 mi Variable 3.5 mph - N/A   Clear
3:53 PM 63.0 °F - 43.0 °F 48% 30.38 in 10.0 mi Calm Calm - N/A   Clear
4:53 PM 62.1 °F - 45.0 °F 53% 30.37 in 10.0 mi Calm Calm - N/A   Clear
5:53 PM 59.0 °F - 46.9 °F 64% 30.36 in 10.0 mi SE 4.6 mph - N/A   Clear
6:53 PM 54.0 °F - 48.9 °F 83% 30.37 in 10.0 mi Calm Calm - N/A   Overcast
7:53 PM 51.1 °F - 48.0 °F 89% 30.36 in 10.0 mi Calm Calm - N/A   Scattered Clouds
8:53 PM 50.0 °F - 46.9 °F 89% 30.36 in 10.0 mi Calm Calm - N/A   Clear
9:53 PM 45.0 °F - 44.1 °F 97% 30.37 in 10.0 mi Calm Calm - N/A   Clear
10:53 PM 42.1 °F - 41.0 °F 96% 30.37 in 10.0 mi Calm Calm - N/A   Clear
11:53 PM 42.1 °F - 39.9 °F 92% 30.35 in - Calm Calm - N/A   Partly Cloudy